[[{"header":{"parameterUnit":"m.s-1","parameterCategory":1,"la1":30.2992,"la2":30.254,"lo1":-89.0895,"lo2":-89.0443,"dy":0.0025,"dx":0.0025,"nx":19,"ny":19,"refTime":"2026-04-08T09:00:00:Z","depth":0,"parameterNumber":2,"parameterNumberName":"U-component_of_WINDS"},"data":[0,0,0,-6.487,-6.4871,-6.487,-6.4869,-6.4926,-6.4927,0,0,0,0,0,0,0,0,0,0,0,-6.4903,-6.4904,-6.487,-6.4871,-6.487,-6.4869,-6.4926,-6.4927,0,0,0,0,0,0,0,0,0,0,0,-6.4902,-6.4904,-6.4906,-6.4871,-6.487,-6.4869,-6.4925,-6.4906,0,0,0,0,0,0,0,0,0,0,-6.4898,-6.4959,-6.4904,-6.4906,-6.4871,-6.487,-6.4869,-6.4904,-6.4907,-6.4951,0,-6.4995,0,-6.4962,-6.4934,-6.4935,0,0,0,-6.4847,-6.4957,-6.4927,-6.4906,-6.4871,-6.487,-6.4863,-6.4905,-6.4909,-6.4955,-6.4996,-6.4996,-6.4963,-6.4935,-6.4935,-6.526,-6.5263,0,0,-6.4847,-6.4921,-6.4925,-6.4931,-6.4932,-6.4864,-6.4864,-6.4907,-6.4957,-6.4996,-6.4997,-6.4964,-6.4936,-6.4936,-6.5257,-6.5261,0,0,0,-6.4863,-6.4922,-6.4889,-6.493,-6.4926,-6.4864,-6.4864,-6.4955,-6.4938,-6.4997,-6.4965,-6.4936,-6.4938,-6.5254,-6.5259,-6.5461,0,0,0,-6.4862,-6.4931,-6.4891,-6.4936,-6.4926,-6.494,-6.4913,-6.4935,-6.4937,-6.4965,-6.4936,-6.4939,-6.5251,-6.5257,-6.5449,-6.5545,0,0,0,-6.4892,-6.4934,-6.4945,-6.494,-6.4942,-6.4937,-6.4922,-6.4934,-6.492,-6.4935,-6.4939,-6.5249,-6.5256,-6.5438,-6.5527,-6.5653,0,0,0,-6.4946,-6.5125,-6.495,-6.5138,-6.4943,-6.5062,-6.4921,-6.5006,-6.5043,-6.4937,-6.5252,-6.5258,-6.5435,-6.5516,-6.5642,-6.5773,-6.5834,0,0,-6.5213,-6.516,-6.5264,-6.5108,-6.5277,-6.5056,-6.5255,-6.522,-6.5154,-6.5229,-6.5236,-6.5453,-6.5526,-6.5651,-6.6149,-6.6198,0,0,0,-6.5374,-6.5451,-6.548,-6.5518,-6.5495,-6.5484,-6.541,-6.5397,-6.5457,-6.5207,-6.5529,-6.5571,-6.5641,-6.57,-6.5742,-6.5799,-6.5288,-6.5288,-6.5287,-6.5859,-6.5765,-6.5934,-6.5841,-6.5881,-6.5803,-6.5828,-6.5798,-6.5691,-6.577,-6.5792,-6.6105,-6.6178,-6.6208,-6.6269,-6.5852,-6.5853,-6.5854,-6.5854,-6.6244,-6.6338,-6.6194,-6.6305,-6.6206,-6.63,-6.6234,-6.6156,-6.6231,-6.608,-6.6138,-6.5983,-6.6265,-6.6313,-6.5868,-6.5866,-6.5864,-6.5863,-6.5862,-6.6552,-6.658,-6.6562,-6.6609,-6.6657,-6.6557,-6.6636,-6.6542,-6.6456,-6.6512,-6.6527,-6.6523,-6.6509,-6.6526,-6.6527,-6.6528,-6.6529,-6.653,-6.653,-6.6879,-6.6851,-6.6927,-6.692,-6.6933,-6.694,-6.6867,-6.6878,-6.6868,-6.6794,-6.6794,-6.6683,-6.6309,-6.6218,-6.6547,-6.6544,-6.6542,-6.654,-6.6539,-6.7305,-6.7194,-6.7313,-6.7327,-6.7311,-6.7367,-6.7247,-6.728,-6.7276,-6.7319,-6.7195,-6.6934,-6.6873,-6.6839,-6.6764,-6.7213,-6.7213,-6.7213,-6.7213,-6.7566,-6.7526,-6.7627,-6.7656,-6.7674,-6.7579,-6.7719,-6.7666,-6.7593,-6.7586,-6.7507,-6.7398,-6.7368,-6.7325,-6.7281,-6.7208,-6.7761,-6.7762,-6.7762,-6.7824,-6.7781,-6.7917,-6.7843,-6.7825,-6.7813,-6.7943,-6.7985,-6.7879,-6.7783,-6.7579,-6.7556,-6.7379,-6.7326,-6.7225,-6.7158,-6.7024,0,0]},{"header":{"parameterUnit":"m.s-1","parameterCategory":1,"la1":30.2992,"la2":30.254,"lo1":-89.0895,"lo2":-89.0443,"dy":0.0025,"dx":0.0025,"nx":19,"ny":19,"refTime":"2026-04-08T09:00:00:Z","depth":0,"parameterNumber":3,"parameterNumberName":"V-component_of_WINDS"},"data":[0,0,0,-1.0966,-1.0968,-1.1082,-1.1082,-1.1225,-1.1227,0,0,0,0,0,0,0,0,0,0,0,-1.0932,-1.0933,-1.0965,-1.0968,-1.1082,-1.1083,-1.1225,-1.1227,0,0,0,0,0,0,0,0,0,0,0,-1.0931,-1.0932,-1.0934,-1.0969,-1.1082,-1.1083,-1.1225,-1.114,0,0,0,0,0,0,0,0,0,0,-1.103,-1.0998,-1.0932,-1.0934,-1.0969,-1.1082,-1.1083,-1.1136,-1.1145,-1.1173,0,-1.1199,0,-1.1215,-1.1236,-1.1237,0,0,0,-1.0969,-1.0991,-1.1021,-1.0934,-1.097,-1.1082,-1.1031,-1.1141,-1.1152,-1.1185,-1.1201,-1.1206,-1.1217,-1.1237,-1.1238,-1.1398,-1.1399,0,0,-1.0962,-1.0952,-1.1014,-1.1028,-1.1012,-1.1027,-1.1034,-1.1147,-1.1163,-1.1202,-1.121,-1.122,-1.1238,-1.1239,-1.1397,-1.1398,0,0,0,-1.0944,-1.0948,-1.0976,-1.1022,-1.1043,-1.103,-1.1039,-1.1158,-1.1168,-1.1211,-1.1221,-1.1239,-1.1241,-1.1397,-1.1398,-1.1424,0,0,0,-1.094,-1.0937,-1.0973,-1.0968,-1.1041,-1.1103,-1.1047,-1.116,-1.1174,-1.1221,-1.1239,-1.1242,-1.1396,-1.1397,-1.1421,-1.1438,0,0,0,-1.0924,-1.0935,-1.0952,-1.0967,-1.1016,-1.1101,-1.1117,-1.1164,-1.118,-1.1237,-1.1242,-1.1395,-1.1397,-1.1419,-1.1435,-1.1476,0,0,0,-1.0905,-1.0975,-1.0952,-1.1034,-1.1015,-1.1116,-1.1117,-1.1193,-1.1245,-1.124,-1.1396,-1.1398,-1.1418,-1.1432,-1.1474,-1.1509,-1.1523,0,0,-1.0988,-1.0985,-1.1033,-1.1016,-1.1119,-1.1099,-1.1205,-1.1263,-1.1278,-1.1357,-1.1361,-1.1422,-1.1434,-1.1475,-1.1604,-1.1615,0,0,0,-1.1056,-1.1091,-1.112,-1.1169,-1.1213,-1.1252,-1.1294,-1.1315,-1.1382,-1.1317,-1.1449,-1.1456,-1.1481,-1.1498,-1.1507,-1.1528,-1.1405,-1.1405,-1.1405,-1.1161,-1.1174,-1.1254,-1.128,-1.1327,-1.1367,-1.1406,-1.144,-1.1442,-1.1473,-1.1497,-1.1573,-1.1593,-1.16,-1.1621,-1.1516,-1.1516,-1.1516,-1.1517,-1.1283,-1.1333,-1.133,-1.1407,-1.142,-1.1485,-1.1525,-1.1523,-1.1584,-1.1557,-1.1579,-1.1549,-1.1611,-1.1631,-1.1519,-1.1518,-1.1518,-1.1518,-1.1518,-1.1353,-1.1379,-1.1401,-1.147,-1.1521,-1.1544,-1.1601,-1.1611,-1.1621,-1.1643,-1.1668,-1.1668,-1.1668,-1.1654,-1.1654,-1.1655,-1.1655,-1.1655,-1.1655,-1.1416,-1.1441,-1.1488,-1.1538,-1.1568,-1.1609,-1.1647,-1.1677,-1.1712,-1.1715,-1.1715,-1.1712,-1.1615,-1.159,-1.1659,-1.1659,-1.1658,-1.1658,-1.1657,-1.1536,-1.1509,-1.1583,-1.1613,-1.167,-1.1718,-1.1728,-1.1787,-1.1813,-1.184,-1.1831,-1.1758,-1.1756,-1.1749,-1.1728,-1.1829,-1.1829,-1.1829,-1.1829,-1.1594,-1.1593,-1.1668,-1.1715,-1.1762,-1.1777,-1.1857,-1.1885,-1.1911,-1.1927,-1.1914,-1.1887,-1.1879,-1.1882,-1.1872,-1.1852,-1.1983,-1.1983,-1.1983,-1.1667,-1.167,-1.1738,-1.1762,-1.1806,-1.1843,-1.1917,-1.197,-1.1993,-1.1989,-1.1939,-1.1933,-1.189,-1.1876,-1.1873,-1.1857,-1.1822,0,0]}]]